Year,Month,Day,Hour,Minute,Value (Times are PST for temperature in C)
2019,04,09,00,00,8.20
2019,04,09,00,01,8.20
2019,04,09,00,02,8.20
2019,04,09,00,03,8.20
2019,04,09,00,04,8.20
2019,04,09,00,05,8.20
2019,04,09,00,06,8.20
2019,04,09,00,07,8.20
2019,04,09,00,09,8.20
2019,04,09,00,10,8.20
2019,04,09,00,11,8.20
2019,04,09,00,12,8.20
2019,04,09,00,13,8.10
2019,04,09,00,14,8.10
2019,04,09,00,15,8.10
2019,04,09,00,16,8.10
2019,04,09,00,17,8.10
2019,04,09,00,18,8.10
2019,04,09,00,19,8.10
2019,04,09,00,20,8.10
2019,04,09,00,21,8.10
2019,04,09,00,22,8.10
2019,04,09,00,23,8.10
2019,04,09,00,24,8.10
2019,04,09,00,25,8.10
2019,04,09,00,26,8.10
2019,04,09,00,27,8.10
2019,04,09,00,28,8.10
2019,04,09,00,29,8.10
2019,04,09,00,30,8.10
2019,04,09,00,32,8.00
2019,04,09,00,33,8.00
2019,04,09,00,34,8.00
2019,04,09,00,35,8.00
2019,04,09,00,36,8.00
2019,04,09,00,37,8.00
2019,04,09,00,38,8.00
2019,04,09,00,39,8.00
2019,04,09,00,40,8.00
2019,04,09,00,41,8.00
2019,04,09,00,42,8.00
2019,04,09,00,43,8.00
2019,04,09,00,44,8.00
2019,04,09,00,45,8.00
2019,04,09,00,46,8.00
2019,04,09,00,47,8.00
2019,04,09,00,48,8.00
2019,04,09,00,49,8.00
2019,04,09,00,50,8.00
2019,04,09,00,51,8.00
2019,04,09,00,52,8.00
2019,04,09,00,53,8.00
2019,04,09,00,54,8.00
2019,04,09,00,55,8.00
2019,04,09,00,56,8.00
2019,04,09,00,57,8.00
2019,04,09,00,58,8.00
2019,04,09,00,59,8.00
2019,04,09,01,00,8.00
2019,04,09,01,01,8.00
2019,04,09,01,02,8.00
2019,04,09,01,03,8.00
2019,04,09,01,04,8.00
2019,04,09,01,05,8.00
2019,04,09,01,06,8.00
2019,04,09,01,07,8.00
2019,04,09,01,08,8.00
2019,04,09,01,09,8.00
2019,04,09,01,10,8.00
2019,04,09,01,11,8.00
2019,04,09,01,12,8.00
2019,04,09,01,13,8.00
2019,04,09,01,14,8.00
2019,04,09,01,15,8.00
2019,04,09,01,16,8.00
2019,04,09,01,17,7.90
2019,04,09,01,18,7.90
2019,04,09,01,19,7.90
2019,04,09,01,20,7.90
2019,04,09,01,21,7.90
2019,04,09,01,22,7.90
2019,04,09,01,23,7.90
2019,04,09,01,24,7.90
2019,04,09,01,25,7.90
2019,04,09,01,26,7.90
2019,04,09,01,27,7.90
2019,04,09,01,28,7.90
2019,04,09,01,29,7.90
2019,04,09,01,30,7.90
2019,04,09,01,31,7.90
2019,04,09,01,32,7.90
2019,04,09,01,33,7.90
2019,04,09,01,34,7.90
2019,04,09,01,35,7.90
2019,04,09,01,36,7.90
2019,04,09,01,37,7.90
2019,04,09,01,38,7.90
2019,04,09,01,39,7.90
2019,04,09,01,40,7.90
2019,04,09,01,41,7.90
2019,04,09,01,42,7.90
2019,04,09,01,43,7.90
2019,04,09,01,44,7.90
2019,04,09,01,45,7.90
2019,04,09,01,46,7.90
2019,04,09,01,47,7.90
2019,04,09,01,48,7.90
2019,04,09,01,49,7.90
2019,04,09,01,50,7.90
2019,04,09,01,51,7.90
2019,04,09,01,52,7.90
2019,04,09,01,53,7.90
2019,04,09,01,54,7.90
2019,04,09,01,55,7.90
2019,04,09,01,56,7.90
2019,04,09,01,57,7.90
2019,04,09,01,58,7.90
2019,04,09,01,59,7.90
2019,04,09,02,00,7.90
2019,04,09,02,01,7.90
2019,04,09,02,02,7.90
2019,04,09,02,03,7.90
2019,04,09,02,04,7.90
2019,04,09,02,05,7.90
2019,04,09,02,06,7.90
2019,04,09,02,07,7.90
2019,04,09,02,08,7.90
2019,04,09,02,09,7.90
2019,04,09,02,10,7.90
2019,04,09,02,11,7.90
2019,04,09,02,12,7.90
2019,04,09,02,13,7.90
2019,04,09,02,14,7.90
2019,04,09,02,15,7.90
2019,04,09,02,16,7.90
2019,04,09,02,17,7.90
2019,04,09,02,18,7.90
2019,04,09,02,19,7.90
2019,04,09,02,20,7.90
2019,04,09,02,21,7.90
2019,04,09,02,22,7.90
2019,04,09,02,23,7.90
2019,04,09,02,24,7.90
2019,04,09,02,25,7.90
2019,04,09,02,26,7.90
2019,04,09,02,27,7.90
2019,04,09,02,28,7.90
2019,04,09,02,29,7.90
2019,04,09,02,30,8.00
2019,04,09,02,31,8.00
2019,04,09,02,32,8.00
2019,04,09,02,33,8.00
2019,04,09,02,34,8.00
2019,04,09,02,36,8.00
2019,04,09,02,37,8.00
2019,04,09,02,38,8.00
2019,04,09,02,39,8.00
2019,04,09,02,41,8.00
2019,04,09,02,42,8.00
2019,04,09,02,43,8.00
2019,04,09,02,44,8.00
2019,04,09,02,46,8.00
2019,04,09,02,47,8.00
2019,04,09,02,48,8.00
2019,04,09,02,49,8.00
2019,04,09,02,51,8.00
2019,04,09,02,52,8.00
2019,04,09,02,53,8.00
2019,04,09,02,54,8.00
2019,04,09,02,56,8.00
2019,04,09,02,57,8.00
2019,04,09,02,58,8.00
2019,04,09,02,59,8.00
2019,04,09,03,01,8.00
2019,04,09,03,02,8.00
2019,04,09,03,03,8.00
2019,04,09,03,04,8.00
2019,04,09,03,06,8.00
2019,04,09,03,07,8.00
2019,04,09,03,08,8.00
2019,04,09,03,09,8.00
2019,04,09,03,11,8.00
2019,04,09,03,12,8.00
2019,04,09,03,13,8.00
2019,04,09,03,14,8.00
2019,04,09,03,16,8.00
2019,04,09,03,17,8.00
2019,04,09,03,18,8.00
2019,04,09,03,19,8.00
2019,04,09,03,21,8.00
2019,04,09,03,22,8.00
2019,04,09,03,23,8.00
2019,04,09,03,24,8.00
2019,04,09,03,25,8.00
2019,04,09,03,26,8.00
2019,04,09,03,27,8.00
2019,04,09,03,28,8.00
2019,04,09,03,29,8.00
2019,04,09,03,30,8.00
2019,04,09,03,31,8.00
2019,04,09,03,32,8.00
2019,04,09,03,33,8.00
2019,04,09,03,34,8.00
2019,04,09,03,36,8.00
2019,04,09,03,37,8.00
2019,04,09,03,38,8.00
2019,04,09,03,39,8.10
2019,04,09,03,40,8.10
2019,04,09,03,41,8.10
2019,04,09,03,42,8.10
2019,04,09,03,43,8.10
2019,04,09,03,44,8.10
2019,04,09,03,45,8.10
2019,04,09,03,46,8.10
2019,04,09,03,47,8.10
2019,04,09,03,48,8.10
2019,04,09,03,49,8.10
2019,04,09,03,50,8.10
2019,04,09,03,51,8.10
2019,04,09,03,52,8.10
2019,04,09,03,53,8.20
2019,04,09,03,54,8.20
2019,04,09,03,55,8.20
2019,04,09,03,56,8.20
2019,04,09,03,57,8.20
2019,04,09,03,58,8.20
2019,04,09,03,59,8.20
2019,04,09,04,00,8.20
2019,04,09,04,01,8.20
2019,04,09,04,02,8.20
2019,04,09,04,03,8.20
2019,04,09,04,04,8.20
2019,04,09,04,05,8.20
2019,04,09,04,06,8.20
2019,04,09,04,07,8.20
2019,04,09,04,08,8.20
2019,04,09,04,09,8.20
2019,04,09,04,10,8.20
2019,04,09,04,11,8.20
2019,04,09,04,12,8.20
2019,04,09,04,13,8.20
2019,04,09,04,14,8.20
2019,04,09,04,15,8.20
2019,04,09,04,16,8.20
2019,04,09,04,17,8.20
2019,04,09,04,18,8.20
2019,04,09,04,19,8.20
2019,04,09,04,20,8.20
2019,04,09,04,21,8.20
2019,04,09,04,22,8.20
2019,04,09,04,23,8.20
2019,04,09,04,24,8.20
2019,04,09,04,25,8.20
2019,04,09,04,26,8.20
2019,04,09,04,27,8.20
2019,04,09,04,28,8.20
2019,04,09,04,29,8.20
2019,04,09,04,30,8.20
2019,04,09,04,31,8.20
2019,04,09,04,32,8.20
2019,04,09,04,33,8.20
2019,04,09,04,34,8.20
2019,04,09,04,35,8.20
2019,04,09,04,36,8.20
2019,04,09,04,37,8.20
2019,04,09,04,38,8.20
2019,04,09,04,39,8.20
2019,04,09,04,40,8.20
2019,04,09,04,41,8.20
2019,04,09,04,42,8.20
2019,04,09,04,43,8.20
2019,04,09,04,44,8.20
2019,04,09,04,45,8.20
2019,04,09,04,46,8.20
2019,04,09,04,47,8.20
2019,04,09,04,48,8.20
2019,04,09,04,49,8.20
2019,04,09,04,50,8.20
2019,04,09,04,51,8.20
2019,04,09,04,52,8.20
2019,04,09,04,53,8.20
2019,04,09,04,54,8.20
2019,04,09,04,55,8.20
2019,04,09,04,56,8.20
2019,04,09,04,57,8.20
2019,04,09,04,58,8.20
2019,04,09,04,59,8.20
2019,04,09,05,00,8.20
2019,04,09,05,01,8.20
2019,04,09,05,02,8.20
2019,04,09,05,03,8.20
2019,04,09,05,04,8.20
2019,04,09,05,05,8.20
2019,04,09,05,06,8.20
2019,04,09,05,07,8.10
2019,04,09,05,08,8.10
2019,04,09,05,09,8.10
2019,04,09,05,10,8.10
2019,04,09,05,11,8.10
2019,04,09,05,12,8.10
2019,04,09,05,13,8.10
2019,04,09,05,14,8.10
2019,04,09,05,15,8.10
2019,04,09,05,16,8.10
2019,04,09,05,17,8.10
2019,04,09,05,18,8.10
2019,04,09,05,19,8.10
2019,04,09,05,20,8.10
2019,04,09,05,21,8.10
2019,04,09,05,22,8.10
2019,04,09,05,23,8.10
2019,04,09,05,24,8.10
2019,04,09,05,25,8.10
2019,04,09,05,26,8.10
2019,04,09,05,27,8.10
2019,04,09,05,28,8.10
2019,04,09,05,29,8.10
2019,04,09,05,30,8.10
2019,04,09,05,31,8.10
2019,04,09,05,32,8.10
2019,04,09,05,33,8.10
2019,04,09,05,34,8.10
2019,04,09,05,35,8.10
2019,04,09,05,36,8.10
2019,04,09,05,37,8.10
2019,04,09,05,38,8.10
2019,04,09,05,39,8.10
2019,04,09,05,40,8.10
2019,04,09,05,41,8.10
2019,04,09,05,42,8.10
2019,04,09,05,43,8.10
2019,04,09,05,44,8.10
2019,04,09,05,45,8.10
2019,04,09,05,46,8.10
2019,04,09,05,47,8.10
2019,04,09,05,48,8.10
2019,04,09,05,49,8.10
2019,04,09,05,50,8.10
2019,04,09,05,51,8.10
2019,04,09,05,52,8.10
2019,04,09,05,53,8.10
2019,04,09,05,54,8.00
2019,04,09,05,55,8.00
2019,04,09,05,56,8.00
2019,04,09,05,57,8.00
2019,04,09,05,58,8.00
2019,04,09,05,59,8.00
2019,04,09,06,00,8.00
2019,04,09,06,01,8.00
2019,04,09,06,02,8.00
2019,04,09,06,03,7.90
2019,04,09,06,04,7.90
2019,04,09,06,05,7.90
2019,04,09,06,06,7.90
2019,04,09,06,07,7.90
2019,04,09,06,08,7.90
2019,04,09,06,09,7.80
2019,04,09,06,10,7.80
2019,04,09,06,11,7.80
2019,04,09,06,12,7.80
2019,04,09,06,13,7.80
2019,04,09,06,14,7.80
2019,04,09,06,15,7.80
2019,04,09,06,16,7.80
2019,04,09,06,17,7.80
2019,04,09,06,18,7.80
2019,04,09,06,19,7.70
2019,04,09,06,20,7.70
2019,04,09,06,21,7.70
2019,04,09,06,22,7.70
2019,04,09,06,23,7.70
2019,04,09,06,24,7.70
2019,04,09,06,25,7.70
2019,04,09,06,26,7.70
2019,04,09,06,27,7.70
2019,04,09,06,28,7.70
2019,04,09,06,29,7.70
2019,04,09,06,30,7.70
2019,04,09,06,32,7.70
2019,04,09,06,33,7.70
2019,04,09,06,34,7.60
2019,04,09,06,35,7.60
2019,04,09,06,36,7.60
2019,04,09,06,37,7.60
2019,04,09,06,38,7.60
2019,04,09,06,39,7.60
2019,04,09,06,40,7.60
2019,04,09,06,41,7.60
2019,04,09,06,42,7.60
2019,04,09,06,43,7.50
2019,04,09,06,44,7.50
2019,04,09,06,45,7.50
2019,04,09,06,46,7.50
2019,04,09,06,47,7.50
2019,04,09,06,48,7.50
2019,04,09,06,49,7.40
2019,04,09,06,51,7.40
2019,04,09,06,52,7.40
2019,04,09,06,53,7.40
2019,04,09,06,54,7.40
2019,04,09,06,56,7.30
2019,04,09,06,57,7.30
2019,04,09,06,58,7.30
2019,04,09,06,59,7.30
2019,04,09,07,01,7.30
2019,04,09,07,02,7.30
2019,04,09,07,03,7.30
2019,04,09,07,04,7.30
2019,04,09,07,06,7.30
2019,04,09,07,07,7.30
2019,04,09,07,08,7.30
2019,04,09,07,09,7.30
2019,04,09,07,11,7.20
2019,04,09,07,12,7.20
2019,04,09,07,13,7.20
2019,04,09,07,14,7.20
2019,04,09,07,16,7.20
2019,04,09,07,17,7.20
2019,04,09,07,18,7.20
2019,04,09,07,19,7.20
2019,04,09,07,21,7.20
2019,04,09,07,22,7.20
2019,04,09,07,23,7.20
2019,04,09,07,24,7.10
2019,04,09,07,26,7.10
2019,04,09,07,27,7.10
2019,04,09,07,28,7.10
2019,04,09,07,29,7.10
2019,04,09,07,31,7.10
2019,04,09,07,32,7.10
2019,04,09,07,33,7.10
2019,04,09,07,34,7.10
2019,04,09,07,36,7.10
2019,04,09,07,37,7.10
2019,04,09,07,38,7.10
2019,04,09,07,39,7.10
2019,04,09,07,41,7.10
2019,04,09,07,42,7.10
2019,04,09,07,43,7.20
2019,04,09,07,44,7.20
2019,04,09,07,46,7.20
2019,04,09,07,47,7.20
2019,04,09,07,48,7.20
2019,04,09,07,49,7.20
2019,04,09,07,51,7.20
2019,04,09,07,52,7.30
2019,04,09,07,53,7.30
2019,04,09,07,54,7.30
2019,04,09,07,56,7.30
2019,04,09,07,57,7.40
2019,04,09,07,58,7.40
2019,04,09,07,59,7.50
2019,04,09,08,01,7.60
2019,04,09,08,02,7.70
2019,04,09,08,03,7.80
2019,04,09,08,04,7.80
2019,04,09,08,06,7.90
2019,04,09,08,07,7.90
2019,04,09,08,08,8.00
2019,04,09,08,09,8.00
2019,04,09,08,11,8.10
2019,04,09,08,12,8.20
2019,04,09,08,13,8.20
2019,04,09,08,14,8.20
2019,04,09,08,15,8.30
2019,04,09,08,16,8.30
2019,04,09,08,17,8.40
2019,04,09,08,18,8.50
2019,04,09,08,19,8.50
2019,04,09,08,20,8.50
2019,04,09,08,21,8.60
2019,04,09,08,22,8.60
2019,04,09,08,23,8.70
2019,04,09,08,24,8.70
2019,04,09,08,25,8.70
2019,04,09,08,26,8.70
2019,04,09,08,27,8.60
2019,04,09,08,28,8.60
2019,04,09,08,29,8.60
2019,04,09,08,30,8.60
2019,04,09,08,31,8.60
2019,04,09,08,32,8.60
2019,04,09,08,33,8.70
2019,04,09,08,34,8.70
2019,04,09,08,35,8.70
2019,04,09,08,36,8.70
2019,04,09,08,37,8.70
2019,04,09,08,38,8.70
2019,04,09,08,39,8.70
2019,04,09,08,40,8.70
2019,04,09,08,41,8.70
2019,04,09,08,42,8.80
2019,04,09,08,43,8.80
2019,04,09,08,44,8.90
2019,04,09,08,45,8.90
2019,04,09,08,46,8.90
2019,04,09,08,47,9.00
2019,04,09,08,48,9.00
2019,04,09,08,49,9.10
2019,04,09,08,50,9.10
2019,04,09,08,51,9.20
2019,04,09,08,52,9.20
2019,04,09,08,53,9.20
2019,04,09,08,54,9.20
2019,04,09,08,55,9.20
2019,04,09,08,56,9.20
2019,04,09,08,57,9.20
2019,04,09,08,58,9.30
2019,04,09,08,59,9.30
2019,04,09,09,00,9.30
2019,04,09,09,01,9.40
2019,04,09,09,02,9.40
2019,04,09,09,03,9.50
2019,04,09,09,04,9.50
2019,04,09,09,05,9.60
2019,04,09,09,06,9.70
2019,04,09,09,07,9.80
2019,04,09,09,08,9.90
2019,04,09,09,09,9.90
2019,04,09,09,10,9.90
2019,04,09,09,11,9.90
2019,04,09,09,12,9.90
2019,04,09,09,13,9.90
2019,04,09,09,14,9.90
2019,04,09,09,15,9.90
2019,04,09,09,16,10.10
2019,04,09,09,17,10.10
2019,04,09,09,18,10.10
2019,04,09,09,19,10.10
2019,04,09,09,20,10.10
2019,04,09,09,21,10.20
2019,04,09,09,22,10.20
2019,04,09,09,23,10.20
2019,04,09,09,24,10.30
2019,04,09,09,25,10.40
2019,04,09,09,26,10.40
2019,04,09,09,27,10.40
2019,04,09,09,28,10.60
2019,04,09,09,29,10.60
2019,04,09,09,30,10.60
2019,04,09,09,31,10.60
2019,04,09,09,32,10.60
2019,04,09,09,33,10.60
2019,04,09,09,34,10.60
2019,04,09,09,35,10.70
2019,04,09,09,36,10.70
2019,04,09,09,37,10.80
2019,04,09,09,38,10.90
2019,04,09,09,39,10.90
2019,04,09,09,40,11.10
2019,04,09,09,41,11.10
2019,04,09,09,42,11.20
2019,04,09,09,43,11.30
2019,04,09,09,44,11.30
2019,04,09,09,45,11.40
2019,04,09,09,46,11.40
2019,04,09,09,47,11.60
2019,04,09,09,48,11.60
2019,04,09,09,49,11.70
2019,04,09,09,50,11.80
2019,04,09,09,51,11.80
2019,04,09,09,52,11.90
2019,04,09,09,53,11.90
2019,04,09,09,54,12.00
2019,04,09,09,55,12.10
2019,04,09,09,56,12.10
2019,04,09,09,57,12.20
2019,04,09,09,58,12.30
2019,04,09,09,59,12.30
2019,04,09,10,00,12.30
2019,04,09,10,01,12.30
2019,04,09,10,02,12.30
2019,04,09,10,03,12.20
2019,04,09,10,04,12.20
2019,04,09,10,05,12.20
2019,04,09,10,06,12.10
2019,04,09,10,07,12.10
2019,04,09,10,08,12.00
2019,04,09,10,09,12.00
2019,04,09,10,10,11.90
2019,04,09,10,11,11.90
2019,04,09,10,12,11.80
2019,04,09,10,13,11.80
2019,04,09,10,14,11.70
2019,04,09,10,15,11.60
2019,04,09,10,16,11.60
2019,04,09,10,17,11.40
2019,04,09,10,18,11.40
2019,04,09,10,19,11.40
2019,04,09,10,20,11.40
2019,04,09,10,21,11.40
2019,04,09,10,22,11.30
2019,04,09,10,23,11.40
2019,04,09,10,24,11.40
2019,04,09,10,25,11.40
2019,04,09,10,26,11.40
2019,04,09,10,27,11.40
2019,04,09,10,28,11.60
2019,04,09,10,29,11.60
2019,04,09,10,30,11.60
2019,04,09,10,31,11.70
2019,04,09,10,32,11.80
2019,04,09,10,33,11.80
2019,04,09,10,34,11.90
2019,04,09,10,35,12.00
2019,04,09,10,36,12.10
2019,04,09,10,37,12.20
2019,04,09,10,38,12.20
2019,04,09,10,39,12.20
2019,04,09,10,40,12.20
2019,04,09,10,41,12.30
2019,04,09,10,42,12.30
2019,04,09,10,43,12.30
2019,04,09,10,44,12.30
2019,04,09,10,45,12.30
2019,04,09,10,46,12.30
2019,04,09,10,47,12.20
2019,04,09,10,48,12.20
2019,04,09,10,49,12.10
2019,04,09,10,50,12.00
2019,04,09,10,51,11.90
2019,04,09,10,52,11.90
2019,04,09,10,53,11.90
2019,04,09,10,54,11.90
2019,04,09,10,55,11.90
2019,04,09,10,56,11.90
2019,04,09,10,57,11.90
2019,04,09,10,58,12.00
2019,04,09,10,59,12.10
2019,04,09,11,00,12.10
2019,04,09,11,01,12.20
2019,04,09,11,02,12.30
2019,04,09,11,03,12.30
2019,04,09,11,04,12.30
2019,04,09,11,05,12.30
2019,04,09,11,06,12.30
2019,04,09,11,07,12.30
2019,04,09,11,08,12.40
2019,04,09,11,09,12.40
2019,04,09,11,10,12.40
2019,04,09,11,11,12.50
2019,04,09,11,12,12.50
2019,04,09,11,13,12.50
2019,04,09,11,14,12.50
2019,04,09,11,15,12.50
2019,04,09,11,16,12.60
2019,04,09,11,17,12.60
2019,04,09,11,18,12.60
2019,04,09,11,19,12.60
2019,04,09,11,20,12.60
2019,04,09,11,21,12.60
2019,04,09,11,22,12.60
2019,04,09,11,23,12.70
2019,04,09,11,24,12.80
2019,04,09,11,25,12.80
2019,04,09,11,26,12.80
2019,04,09,11,27,12.80
2019,04,09,11,28,12.80
2019,04,09,11,29,12.90
2019,04,09,11,30,12.90
2019,04,09,11,31,13.00
2019,04,09,11,32,12.90
2019,04,09,11,34,13.00
2019,04,09,11,36,13.10
2019,04,09,11,37,13.10
2019,04,09,11,38,13.20
2019,04,09,11,39,13.20
2019,04,09,11,41,13.30
2019,04,09,11,42,13.30
2019,04,09,11,43,13.30
2019,04,09,11,44,13.30
2019,04,09,11,46,13.40
2019,04,09,11,47,13.40
2019,04,09,11,48,13.50
2019,04,09,11,49,13.50
2019,04,09,11,51,13.60
2019,04,09,11,52,13.60
2019,04,09,11,53,13.60
2019,04,09,11,54,13.60
2019,04,09,11,56,13.60
2019,04,09,11,57,13.60
2019,04,09,11,58,13.70
2019,04,09,11,59,13.70
2019,04,09,12,01,13.70
2019,04,09,12,02,13.70
2019,04,09,12,03,13.70
2019,04,09,12,04,13.60
2019,04,09,12,06,13.60
2019,04,09,12,07,13.60
2019,04,09,12,08,13.60
2019,04,09,12,09,13.60
2019,04,09,12,11,13.60
2019,04,09,12,12,13.60
2019,04,09,12,13,13.50
2019,04,09,12,14,13.50
2019,04,09,12,16,13.50
2019,04,09,12,17,13.50
2019,04,09,12,18,13.50
2019,04,09,12,19,13.50
2019,04,09,12,21,13.60
2019,04,09,12,22,13.60
2019,04,09,12,23,13.50
2019,04,09,12,24,13.50
2019,04,09,12,26,13.50
2019,04,09,12,27,13.50
2019,04,09,12,28,13.50
2019,04,09,12,29,13.40
2019,04,09,12,30,13.40
2019,04,09,12,32,13.30
2019,04,09,12,33,13.30
2019,04,09,12,34,13.30
2019,04,09,12,36,13.40
2019,04,09,12,37,13.40
2019,04,09,12,38,13.40
2019,04,09,12,39,13.50
2019,04,09,12,41,13.50
2019,04,09,12,42,13.60
2019,04,09,12,43,13.60
2019,04,09,12,44,13.70
2019,04,09,12,46,13.70
2019,04,09,12,47,13.70
2019,04,09,12,48,13.70
2019,04,09,12,49,13.70
2019,04,09,12,51,13.60
2019,04,09,12,52,13.60
2019,04,09,12,53,13.60
2019,04,09,12,54,13.60
2019,04,09,12,56,13.60
2019,04,09,12,57,13.70
2019,04,09,12,58,13.70
2019,04,09,12,59,13.70
2019,04,09,13,01,13.70
2019,04,09,13,02,13.70
2019,04,09,13,03,13.70
2019,04,09,13,04,13.70
2019,04,09,13,06,13.70
2019,04,09,13,07,13.70
2019,04,09,13,08,13.60
2019,04,09,13,09,13.50
2019,04,09,13,10,13.40
2019,04,09,13,11,13.40
2019,04,09,13,12,13.30
2019,04,09,13,13,13.30
2019,04,09,13,14,13.30
2019,04,09,13,15,13.30
2019,04,09,13,16,13.30
2019,04,09,13,17,13.30
2019,04,09,13,18,13.40
2019,04,09,13,19,13.50
2019,04,09,13,20,13.50
2019,04,09,13,21,13.50
2019,04,09,13,22,13.50
2019,04,09,13,23,13.60
2019,04,09,13,24,13.60
2019,04,09,13,25,13.60
2019,04,09,13,26,13.70
2019,04,09,13,27,13.70
2019,04,09,13,28,13.70
2019,04,09,13,29,13.80
2019,04,09,13,30,13.80
2019,04,09,13,31,13.90
2019,04,09,13,32,14.00
2019,04,09,13,33,14.10
2019,04,09,13,34,14.10
2019,04,09,13,35,14.20
2019,04,09,13,36,14.20
2019,04,09,13,37,14.20
2019,04,09,13,38,14.20
2019,04,09,13,39,14.10
2019,04,09,13,40,14.20
2019,04,09,13,41,14.20
2019,04,09,13,42,14.20
2019,04,09,13,43,14.20
2019,04,09,13,44,14.20
2019,04,09,13,45,14.10
2019,04,09,13,46,14.10
2019,04,09,13,47,14.10
2019,04,09,13,48,14.10
2019,04,09,13,49,14.00
2019,04,09,13,50,14.00
2019,04,09,13,51,13.90
2019,04,09,13,52,13.80
2019,04,09,13,53,13.80
2019,04,09,13,54,13.70
2019,04,09,13,55,13.70
2019,04,09,13,56,13.70
2019,04,09,13,57,13.70
2019,04,09,13,58,13.70
2019,04,09,13,59,13.80
2019,04,09,14,00,13.80
2019,04,09,14,01,13.80
2019,04,09,14,02,13.90
2019,04,09,14,03,13.90
2019,04,09,14,04,14.00
2019,04,09,14,05,14.00
2019,04,09,14,06,14.00
2019,04,09,14,07,14.00
2019,04,09,14,08,14.00
2019,04,09,14,09,14.10
2019,04,09,14,10,14.10
2019,04,09,14,11,14.20
2019,04,09,14,12,14.20
2019,04,09,14,13,14.20
2019,04,09,14,14,14.20
2019,04,09,14,15,14.20
2019,04,09,14,16,14.20
2019,04,09,14,17,14.20
2019,04,09,14,18,14.20
2019,04,09,14,19,14.10
2019,04,09,14,20,14.10
2019,04,09,14,21,14.10
2019,04,09,14,22,14.10
2019,04,09,14,23,14.10
2019,04,09,14,24,14.10
2019,04,09,14,25,14.10
2019,04,09,14,26,14.10
2019,04,09,14,27,14.10
2019,04,09,14,28,14.10
2019,04,09,14,29,14.10
2019,04,09,14,30,14.10
2019,04,09,14,31,14.10
2019,04,09,14,32,14.00
2019,04,09,14,33,14.00
2019,04,09,14,34,14.00
2019,04,09,14,35,13.90
2019,04,09,14,36,13.90
2019,04,09,14,37,13.90
2019,04,09,14,38,14.00
2019,04,09,14,39,14.10
2019,04,09,14,40,14.00
2019,04,09,14,41,14.00
2019,04,09,14,42,14.00
2019,04,09,14,43,14.00
2019,04,09,14,44,14.00
2019,04,09,14,45,14.00
2019,04,09,14,46,14.00
2019,04,09,14,47,14.00
2019,04,09,14,48,13.90
2019,04,09,14,49,13.90
2019,04,09,14,50,13.90
2019,04,09,14,51,13.80
2019,04,09,14,52,13.80
2019,04,09,14,53,13.80
2019,04,09,14,54,13.80
2019,04,09,14,55,13.80
2019,04,09,14,56,13.80
2019,04,09,14,57,13.80
2019,04,09,14,58,13.80
2019,04,09,14,59,13.70
2019,04,09,15,00,13.70
2019,04,09,15,01,13.70
2019,04,09,15,02,13.70
2019,04,09,15,03,13.70
2019,04,09,15,04,13.70
2019,04,09,15,05,13.70
2019,04,09,15,06,13.80
2019,04,09,15,07,13.80
2019,04,09,15,08,13.70
2019,04,09,15,09,13.70
2019,04,09,15,10,13.70
2019,04,09,15,11,13.80
2019,04,09,15,12,13.80
2019,04,09,15,13,13.80
2019,04,09,15,14,13.90
2019,04,09,15,15,13.90
2019,04,09,15,16,13.90
2019,04,09,15,17,13.90
2019,04,09,15,18,13.90
2019,04,09,15,19,13.90
2019,04,09,15,20,13.80
2019,04,09,15,21,13.80
2019,04,09,15,22,13.90
2019,04,09,15,23,14.00
2019,04,09,15,24,14.00
2019,04,09,15,25,14.00
2019,04,09,15,26,14.10
2019,04,09,15,27,14.10
2019,04,09,15,28,14.10
2019,04,09,15,29,14.20
2019,04,09,15,30,14.20
2019,04,09,15,31,14.20
2019,04,09,15,32,14.20
2019,04,09,15,33,14.20
2019,04,09,15,34,14.20
2019,04,09,15,35,14.10
2019,04,09,15,36,14.10
2019,04,09,15,37,14.00
2019,04,09,15,38,13.90
2019,04,09,15,39,13.80
2019,04,09,15,40,13.80
2019,04,09,15,41,13.80
2019,04,09,15,42,13.80
2019,04,09,15,43,13.80
2019,04,09,15,44,13.80
2019,04,09,15,45,13.80
2019,04,09,15,46,13.70
2019,04,09,15,47,13.70
2019,04,09,15,48,13.70
2019,04,09,15,49,13.70
2019,04,09,15,50,13.70
2019,04,09,15,51,13.70
2019,04,09,15,52,13.70
2019,04,09,15,53,13.60
2019,04,09,15,54,13.60
2019,04,09,15,55,13.60
2019,04,09,15,56,13.60
2019,04,09,15,57,13.60
2019,04,09,15,58,13.60
2019,04,09,15,59,13.60
2019,04,09,16,00,13.60
2019,04,09,16,01,13.60
2019,04,09,16,02,13.60
2019,04,09,16,03,13.60
2019,04,09,16,04,13.60
2019,04,09,16,05,13.60
2019,04,09,16,06,13.60
2019,04,09,16,07,13.50
2019,04,09,16,08,13.60
2019,04,09,16,09,13.60
2019,04,09,16,10,13.60
2019,04,09,16,11,13.70
2019,04,09,16,12,13.70
2019,04,09,16,13,13.70
2019,04,09,16,14,13.70
2019,04,09,16,15,13.70
2019,04,09,16,16,13.70
2019,04,09,16,17,13.70
2019,04,09,16,18,13.70
2019,04,09,16,19,13.60
2019,04,09,16,20,13.50
2019,04,09,16,21,13.40
2019,04,09,16,22,13.40
2019,04,09,16,24,13.30
2019,04,09,16,26,13.30
2019,04,09,16,27,13.30
2019,04,09,16,28,13.40
2019,04,09,16,29,13.40
2019,04,09,16,31,13.30
2019,04,09,16,32,13.30
2019,04,09,16,33,13.30
2019,04,09,16,34,13.30
2019,04,09,16,36,13.30
2019,04,09,16,37,13.30
2019,04,09,16,38,13.30
2019,04,09,16,39,13.30
2019,04,09,16,41,13.30
2019,04,09,16,42,13.30
2019,04,09,16,43,13.30
2019,04,09,16,44,13.30
2019,04,09,16,46,13.30
2019,04,09,16,47,13.20
2019,04,09,16,48,13.20
2019,04,09,16,49,13.20
2019,04,09,16,51,13.20
2019,04,09,16,52,13.20
2019,04,09,16,53,13.20
2019,04,09,16,54,13.20
2019,04,09,16,56,13.10
2019,04,09,16,57,13.10
2019,04,09,16,58,13.00
2019,04,09,16,59,13.00
2019,04,09,17,01,12.90
2019,04,09,17,02,12.90
2019,04,09,17,03,12.80
2019,04,09,17,04,12.80
2019,04,09,17,06,12.70
2019,04,09,17,07,12.70
2019,04,09,17,08,12.60
2019,04,09,17,09,12.50
2019,04,09,17,11,12.40
2019,04,09,17,12,12.30
2019,04,09,17,13,12.30
2019,04,09,17,14,12.30
2019,04,09,17,16,12.30
2019,04,09,17,17,12.30
2019,04,09,17,18,12.30
2019,04,09,17,19,12.30
2019,04,09,17,21,12.20
2019,04,09,17,22,12.20
2019,04,09,17,23,12.20
2019,04,09,17,24,12.20
2019,04,09,17,26,12.10
2019,04,09,17,27,12.00
2019,04,09,17,28,12.00
2019,04,09,17,29,11.90
2019,04,09,17,31,11.80
2019,04,09,17,32,11.80
2019,04,09,17,33,11.80
2019,04,09,17,34,11.80
2019,04,09,17,36,11.70
2019,04,09,17,37,11.70
2019,04,09,17,38,11.70
2019,04,09,17,39,11.70
2019,04,09,17,41,11.60
2019,04,09,17,42,11.60
2019,04,09,17,43,11.60
2019,04,09,17,44,11.60
2019,04,09,17,46,11.60
2019,04,09,17,47,11.60
2019,04,09,17,48,11.40
2019,04,09,17,49,11.40
2019,04,09,17,51,11.40
2019,04,09,17,52,11.40
2019,04,09,17,53,11.40
2019,04,09,17,54,11.40
2019,04,09,17,56,11.40
2019,04,09,17,57,11.30
2019,04,09,17,58,11.30
2019,04,09,17,59,11.30
2019,04,09,18,00,11.30
2019,04,09,18,01,11.30
2019,04,09,18,02,11.30
2019,04,09,18,03,11.30
2019,04,09,18,04,11.30
2019,04,09,18,06,11.20
2019,04,09,18,07,11.20
2019,04,09,18,08,11.20
2019,04,09,18,09,11.20
2019,04,09,18,10,11.20
2019,04,09,18,11,11.10
2019,04,09,18,12,11.10
2019,04,09,18,13,11.10
2019,04,09,18,14,11.10
2019,04,09,18,15,11.10
2019,04,09,18,16,11.10
2019,04,09,18,17,11.10
2019,04,09,18,18,11.10
2019,04,09,18,19,11.10
2019,04,09,18,20,10.90
2019,04,09,18,21,10.90
2019,04,09,18,22,10.90
2019,04,09,18,23,10.90
2019,04,09,18,24,10.90
2019,04,09,18,25,10.90
2019,04,09,18,26,10.90
2019,04,09,18,27,10.90
2019,04,09,18,28,10.90
2019,04,09,18,29,10.90
2019,04,09,18,30,10.90
2019,04,09,18,32,10.90
2019,04,09,18,33,10.90
2019,04,09,18,34,10.90
2019,04,09,18,35,10.80
2019,04,09,18,36,10.80
2019,04,09,18,37,10.80
2019,04,09,18,38,10.80
2019,04,09,18,39,10.80
2019,04,09,18,40,10.70
2019,04,09,18,41,10.70
2019,04,09,18,42,10.70
2019,04,09,18,43,10.70
2019,04,09,18,44,10.70
2019,04,09,18,45,10.60
2019,04,09,18,46,10.60
2019,04,09,18,47,10.60
2019,04,09,18,48,10.60
2019,04,09,18,49,10.60
2019,04,09,18,50,10.60
2019,04,09,18,51,10.60
2019,04,09,18,52,10.60
2019,04,09,18,53,10.60
2019,04,09,18,54,10.60
2019,04,09,18,55,10.60